Regional Weather Roundup
Issued by NWS Northern Indiana

Home | Current Version | Previous Version | Text Only | Print | Product List | Glossary Off
Versions: 1 2 3 4 5 6 7 8 9 10 11 12 13 14 15 16 17 18 19 20 21 22 23 24 25 26 27 28 29 30 31 32 33 34 35 36 37 38 39 40 41 42 43 44 45 46 47 48 49 50

000
ASUS43 KIWX 030110
RWRIWX

KIWX WEATHER ROUNDUP
NATIONAL WEATHER SERVICE NORTHERN INDIANA
900 PM EDT SUN AUG 02 2015

NOTE: "FAIR" INDICATES FEW OR NO CLOUDS BELOW 12,000 FEET WITH NO
SIGNIFICANT WEATHER AND/OR OBSTRUCTIONS TO VISIBILITY.

* THESE STATIONS ARE NOT UNDER NWS QUALITY CONTROL. THEY ALSO MAY NOT
  REPORT WEATHER SUCH AS PRECIPITATION OR FOG.

INZ001>027-030200-
NORTHERN INDIANA

CITY           SKY/WX    TMP DP  RH WIND       PRES   REMARKS
GARY*          PTCLDY    86  70  58 SW16G39   29.70R
VALPARAISO     CLEAR     83  68  60 SW14      29.72S
MICHIGAN CITY* CLEAR     82  64  54 SW15G22   29.70R
LAPORTE*       CLEAR     84  68  58 SW14G26   29.71S
KNOX*          CLEAR     82  64  54 SW16G23   29.72S
SOUTH BEND     CLEAR     85  65  51 SW21G30   29.70S
GOSHEN         CLEAR     82  65  56 SW17      29.72S
MONTICELLO*    CLEAR     82  70  66 S12       29.76F
LOGANSPORT*    CLEAR     79  64  61 S8        29.78F
ROCHESTER*     CLEAR     82  70  65 S10       29.76F
WARSAW*        CLEAR     81  68  65 SW6       29.75S
ANGOLA*        PTCLDY    82  75  78 SW10      29.74R
FORT WAYNE     PTCLDY    81  66  60 SW14      29.79S
HUNTINGTON*    CLEAR     81  67  63 SW9G17    29.78F
PERU/GRISSOM   CLEAR     81  69  67 S13       29.78F
MARION*        CLEAR     78  65  64 SW7       29.82S

$$
INZ028>050-030200-
CENTRAL INDIANA

CITY           SKY/WX    TMP DP  RH WIND       PRES   REMARKS
LAFAYETTE      CLEAR     81  68  64 S6        29.78S
KOKOMO*        CLEAR     81  66  61 SW14      29.80F
MUNCIE*        CLEAR     79  63  57 SW14G20   29.84R
INDIANAPOLIS   PTCLDY    81  65  58 S13       29.83S

$$
MIZ043>046-050>051-056>058-064>065-071>073-077>080-030200-
SOUTHWEST LOWER MICHIGAN

CITY           SKY/WX    TMP DP  RH WIND       PRES   REMARKS
BATTLE CREEK   PTCLDY    83  65  54 SW16G28   29.66F
BENTON HARBOR  PTCLDY    84  68  58 SW22G29   29.67R
COLDWATER*     PTCLDY    81  61  50 SW12G23   29.70F
HILLSDALE*     PTCLDY    82  66  59 SW13      29.73F
HOLLAND        CLOUDY    83  69  62 SW25G38   29.61S
GRAND RAPIDS   CLOUDY    85  68  56 SW20G32   29.61R THUNDER
KALAMAZOO      PTCLDY    84  65  52 SW16G24   29.66R
STURGIS*       PTCLDY    81  64  57 SW20G25   29.70S
THREE RIVERS*  FAIR      83  64  54 SW14G21   29.68F

$$
OHZ001>008-015>018-024>025-030200-
NORTHWEST OHIO

CITY           SKY/WX    TMP DP  RH WIND       PRES   REMARKS
WAUSEON*       FAIR      82  64  54 SW15G22   29.74F
DEFIANCE       PTCLDY    84  63  49 SW12G21   29.76S
FINDLAY        CLEAR     80  62  54 SW14      29.79S
TOLEDO EXPRESS PTCLDY    82  63  52 SW12G20   29.74S
TOLEDO METCALF CLEAR     83  64  52 SW15G23   29.75S
LIMA           CLEAR     79  62  56 SW12      29.83S

$$
AND FOR LAKE MICHIGAN COASTAL AND OPEN LAKE BUOY OBSERVATIONS

STATION/POSITION TEMP    WIND        PRES    VSBY  WAVE
                 AIR SEA DIR/SP/G                  HT/PER
                 (F)     (DEG/KT/KT) (MB)    (MI)  (FT/S)
CALUMET HARBOR    87     200/ 19/ 26   N/A
MICHIGAN CITY     85     190/ 25/ 31   N/A
BURNS HARBOR      86     220/ 26/ 27 1005.4F
SAINT JOSEPH      80     190/ 18/ 22 1004.7R
4 MI NW BRIDGMAN  79 73  250/ 19/ 21   N/A           5/ 5
MICHIGAN CITY     81 74  230/ 16/ 21   N/A           5/ 4

$$
&&


USA.gov is the U.S. government's official web portal to all federal, state and local government web resources and services.